Regional Weather Roundup
Issued by NWS

Home | Current Version | Previous Version | Graphics & Text | Print | Product List | Glossary On
Versions: 1 2 3 4 5 6 7 8 9 10 11 12 13 14 15 16 17 18 19 20 21 22 23 24 25 26 27 28 29 30 31 32 33 34 35 36 37 38 39 40 41 42 43 44 45 46 47 48 49 50
000
ASUS45 KCYS 010510
RWRWY

WYOMING REGIONAL WEATHER ROUNDUP
NATIONAL WEATHER SERVICE CHEYENNE WY
1100 PM MDT FRI JUL 31 2015

NOTE:  "FAIR" INDICATES FEW OR NO CLOUDS BELOW 12,000 FEET
WITH NO SIGNIFICANT WEATHER AND/OR OBSTRUCTIONS TO VISIBILITY.

WYZ001-010600-
YELLOWSTONE NATIONAL PARK

CITY           SKY/WX    TMP DP  RH WIND       PRES   REMARKS
LK YELLOWSTONE   N/A     53  33  46 CALM      30.46S
W YELLOWSTONE  NOT AVBL

$$
WYZ002>013-054>058-071-098>099-010600-
NORTHERN WYOMING

CITY           SKY/WX    TMP DP  RH WIND       PRES   REMARKS
JACKSON        NOT AVBL
CODY           FAIR      75  27  16 N5        30.23S
GREYBULL       FAIR      80  37  21 SE5       30.09S
WORLAND        FAIR      69  32  25 E6        30.11R
SHERIDAN       FAIR      66  46  48 S3        30.12R
BUFFALO        FAIR      71  39  31 W7        30.21R
GILLETTE       FAIR      74  49  41 S15       30.14S
HULETT         FAIR      68  52  56 S7        30.15F
NEWCASTLE      FAIR      75  43  31 MISG      30.16S

$$
WYZ014>020-022>026-101>103-010600-
CENTRAL WYOMING

CITY           SKY/WX    TMP DP  RH WIND       PRES   REMARKS
BIG PINEY      FAIR      59  28  30 N13       30.35S
PINEDALE       FAIR      54  34  47 NW7       30.36F
DUBOIS         FAIR      61  30  31 W8        30.37S
LANDER         FAIR      72  33  24 W13       30.21R
RIVERTON       FAIR      74  28  18 NE7       30.21R
CASPER         FAIR      60  40  47 SW8       30.19R
DOUGLAS        FAIR      72  45  37 SE10      30.19R

$$
WYZ021-027>030-104>119-010600-
SOUTHERN WYOMING

CITY           SKY/WX    TMP DP  RH WIND       PRES   REMARKS
EVANSTON       FAIR      69  26  20 N6        30.37S
KEMMERER       FAIR      63  30  29 NW9       30.38S
FORT BRIDGER   CLEAR     68  23  18 W5        30.38S
ROCK SPRINGS     N/A     68  19  15 S5        30.30S
DIXON          FAIR      64  29  27 E12       30.29S
RAWLINS        FAIR      61  21  21 N5        30.29S
SARATOGA       FAIR      64  39  39 S10       30.32F
LARAMIE        FAIR      62  46  55 S12       30.35F
CHEYENNE       FAIR      69  48  47 S10       30.29F
TORRINGTON     FAIR      67  53  61 SE6       30.15F
PINE BLUFFS    FAIR      64  46  52 CALM      30.25S

$$


USA.gov is the U.S. government's official web portal to all federal, state and local government web resources and services.